Regional Weather Roundup
Issued by NWS

Home | Current Version | Previous Version | Graphics & Text | Print | Product List | Glossary On
Versions: 1 2 3 4 5 6 7 8 9 10 11 12 13 14 15 16 17 18 19 20 21 22 23 24 25 26 27 28 29 30 31 32 33 34 35 36 37 38 39 40 41 42 43 44 45 46 47 48 49 50
000
ASUS45 KTFX 301004
RWRMT
MONTANA HOURLY WEATHER ROUNDUP
NATIONAL WEATHER SERVICE GREAT FALLS MT
404 AM MDT THU OCT 30 2014

NOTE: "FAIR" INDICATES FEW OR NO CLOUDS BELOW 12000 FEET WITH NO
SIGNIFICANT WEATHER AND/OR OBSTRUCTIONS TO VISIBILITY.

* THESE STATIONS ARE NOT UNDER NWS QUALITY CONTROL. THEY DO NOT
   REPORT WEATHER SUCH AS PRECIPITATION OR FOG.

MTZ001>007-043-301100-
WEST OF THE DIVIDE
CITY           SKY/WX    TMP DP  RH WIND       PRES   REMARKS
KALISPELL      FOG       39  39 100 CALM      30.25F VSB M1/4
MISSOULA       CLOUDY    37  37 100 CALM      30.28S
BUTTE          CLOUDY    30  27  89 CALM      30.30R
MULLAN PASS    FOG       36  36 100 SE9       30.22S VSB 1    WCI  29
* DEER LODGE   CLOUDY    32  28  85 N/A        N/A
* ESSEX        N/A       38  37  96 N/A        N/A
* HAMILTON APT CLOUDY    39  34  82 N/A        N/A
* LIBBY APT    CLEAR     43  41  93 N/A        N/A
* LINCOLN      N/A       28  27  96 NE1        N/A
* LOOKOUT PASS N/A       39  39 100 S10        N/A   WCI  32
* POLSON       N/A       36  36 100 N/A        N/A
* RONAN APT    PTCLDY    34  30  85 N/A        N/A
* SEELEY LAKE  N/A       29  28  96 E1         N/A
* THOMP F APT  MOCLDY    39  27  62 SE1G10     N/A
* YAAK HILL    N/A       43  40  89 N/A        N/A
$$

MTZ008-052>055-301100-
SOUTHWEST MONTANA
CITY           SKY/WX    TMP DP  RH WIND       PRES   REMARKS
BOZEMAN        PTCLDY    30  27  89 S6        30.28F WCI  24
DILLON         MOCLDY    36  27  70 S9        30.28S WCI  29
W YELLOWSTONE  CLOUDY    25  23  92 CALM      30.34R
* ENNIS APT    MOCLDY    36  27  70 N/A        N/A
* THREE FORKS  MOCLDY    28  28 100 N/A        N/A
* BOULDER HILL N/A       36  25  64 SW8        N/A   WCI  30
* RAYNOLDS PAS N/A       30  15  54 S8         N/A   WCI  22
* WHITEHALL    N/A       34  27  76 N6         N/A   WCI  29
* WISE RIVER   N/A       29  27  92 W3         N/A
$$

MTZ009>010-012-014-046-048-049-054-301100-
EAST SLOPES AND CENTRAL MONTANA
CITY           SKY/WX    TMP DP  RH WIND       PRES   REMARKS
CUT BANK       CLEAR     34  28  79 NW7       30.20S WCI  28
GREAT FALLS    CLEAR     36  30  79 SW10      30.23R WCI  29
HELENA         PTCLDY    37  30  76 CALM      30.27S
MALMSTROM AFB  CLEAR     36  32  85 SW7       30.24S WCI  30
* CONRAD       CLEAR     25  21  85 N/A        N/A
* DEARBORN     N/A       34  32  92 S1         N/A
* EAST GLACIER N/A       40  33  76 W11G17     N/A   WCI  33
* MONARCH      N/A       36  24  62 S6         N/A   WCI  31
* SAINT MARY   N/A       44  32  63 S7G16      N/A
* SWEET GRASS  N/A       43  31  63 W11        N/A
$$

MTZ011-013-016-021-035-040-045-047-050-051-301100-
NORTH CENTRAL MONTANA
CITY           SKY/WX    TMP DP  RH WIND       PRES   REMARKS
HAVRE          CLEAR     36  32  85 SW12      30.20S WCI  28
LEWISTOWN      CLEAR     30  27  89 SE6       30.24S WCI  24
* N BAR RANCH  CLEAR     32  27  82 NW6       30.26R WCI  26
* CHESTER      N/A       32  29  89 N/A        N/A
* DENTON       N/A       36  30  79 SW11       N/A   WCI  28
* GEYSER       N/A       34  27  76 SW9        N/A   WCI  27
* JUDITH GAP   N/A       35  27  73 SE5        N/A   WCI  31
* LOMA         N/A       37  31  79 W4         N/A
$$

MTZ017>020-022>027-061-062-301100-
NORTHEAST MONTANA
CITY           SKY/WX    TMP DP  RH WIND       PRES   REMARKS
GLASGOW        CLOUDY    30  28  92 N6        30.23R WCI  24
GLENDIVE       CLEAR     30  28  92 N9        30.22R WCI  22
JORDAN         CLEAR     27  25  92 CALM      30.21R
SIDNEY         CLOUDY    37  34  89 NW9G16    30.24R WCI  30
WOLF POINT     CLOUDY    37  34  89 CALM      30.24R
* BEAVER HILL  N/A       32  31  96 N/A        N/A
* CIRCLE       N/A       30  27  89 N/A        N/A
* LINDSAY DVD  N/A       29  29 100 NW3        N/A
* NAVAJO       N/A       33  30  89 N12        N/A   WCI  24
* PLENTYWOOD A N/A       27 N/A N/A N/A        N/A
* POPLAR APT   N/A       37  34  89 N/A        N/A
* SACO         N/A       33  32  96 N/A        N/A
$$

MTZ028>042-056>058-301100-
SOUTHCENTRAL AND SOUTHEAST MONTANA
CITY           SKY/WX    TMP DP  RH WIND       PRES   REMARKS
BAKER          CLEAR     30  28  92 W8        30.19R WCI  22
BILLINGS       CLEAR     43  28  56 SW13      30.25R
LIVINGSTON     PTCLDY    30  25  82 NW7       30.28S WCI  23
MILES CITY     CLEAR     34  28  79 NW7       30.21R WCI  28
* FORSYTH APT  CLEAR     41  30  65 W5         N/A
* LAUREL APT   CLEAR     36  23  59 N/A        N/A
* ROUNDUP APT  CLEAR     39  28  65 S10        N/A   WCI  32
* ALZADA       N/A       36  29  76 W5         N/A   WCI  32
* HYSHAM       N/A       43  28  56 W3         N/A
* LAME DEER    N/A       41  29  62 W8         N/A
* REED POINT   N/A       28  27  96 W1         N/A
* ROSCOE HILL  N/A       39  18  43 SE8        N/A   WCI  33
$$

REGIONAL REPORTS...DAKOTAS
CITY           SKY/WX    TMP DP  RH WIND       PRES   REMARKS
WILLISTON      CLOUDY    37  34  89 N9        30.21R WCI  30
DICKINSON      CLEAR     32  30  92 W8        30.14R WCI  25
BEACH          N/A       32  32 100 N8        30.19S WCI  25
CROSBY         CLOUDY    36  36 100 N12       30.22R WCI  28
TIOGA          CLOUDY    32  32 100 N8        30.22R WCI  25
BISMARCK       CLEAR     37  34  89 NW8       30.10R WCI  31
GRAND FORKS    MOCLDY    37  34  89 NE8       30.05R WCI  31
FARGO          FOG       39  37  93 SE8       30.00S WCI  33
BUFFALO SD     CLEAR     36  30  79 NW14      30.10R WCI  27
RAPID CITY     CLEAR     39  30  70 N10       30.16R WCI  32
$$

REGIONAL REPORTS...WYOMING/IDAHO/WASHINGTON
CITY           SKY/WX    TMP DP  RH WIND       PRES   REMARKS
GILLETTE       CLEAR     37  27  67 W13       30.24R WCI  29
SHERIDAN       CLEAR     37  27  67 CALM      30.26R
CODY           PTCLDY    34  25  70 S3        30.28R
YELLOWSTONE LA PTCLDY    25  21  85 CALM      30.38R
SALMON         MOCLDY    36  34  92 CALM      30.28R
MULLAN PASS    FOG       36  36 100 SE9       30.22S VSB 1    WCI  29
SAND POINT     CLOUDY    39  39 100 NE5       30.22S WCI  35
SPOKANE        FOG       45  45 100 NE8       30.16F VSB 3/4
$$

REGIONAL REPORTS...ALBERTA
CITY           SKY/WX    TMP DP  RH WIND       PRES   REMARKS
LETHBRIDGE     FOG       28  28 100 N6        30.19R VSB M1/4 WCI  21

$$




USA.gov is the U.S. government's official web portal to all federal, state and local government web resources and services.